Home   Weather   33°28'N, 112°07'W   Past weeks
Flag for USA

Past Weather in 33°28'N, 112°07'W, USA — Yesterday and Last 2 Weeks

Now
95 °F

Passing clouds.


Feels Like: 90 °F
Forecast: 101 / 78 °F
Wind: 16 mph from West

Location: Phoenix Sky Harbor International Airport

Current Time: Jun 17, 2019 at 9:58:45 pm

Latest Report: Jun 17, 2019 at 8:51 pm


Visibility: 10 mi

Pressure: 29.67 "Hg

Humidity: 13%

Dew Point: 36 °F

Location of 33°28'N, 112°07'WLocation

Past Weather in 33°28'N, 112°07'W — Graph

°F

33°28'N, 112°07'W Temperature Yesterday

Maximum temperature yesterday: 103 °F (at 3:51 pm)
Minimum temperature yesterday: 81 °F (at 4:51 am)
Average temperature yesterday: 93 °F

High & Low Weather Summary for the Past Weeks

 TemperatureHumidityPressure
High109 °F (Jun 12, 2:51 pm)38% (Jun 3, 5:51 am)29.95 "Hg (Jun 3, 5:51 am)
Low74 °F (Jun 3, 5:51 am)4% (Jun 12, 3:51 pm)29.58 "Hg (Jun 16, 5:51 pm)
Average92 °F16%29.74 "Hg
* Reported Jun 2 7:51 pm — Jun 17 7:51 pm, 33°28'N, 112°07'W. Weather by CustomWeather, © 2019

Note: Actual official high and low records may vary slightly from our data, if they occured in-between our weather recording intervals... More about our weather records

Advertising

33°28'N, 112°07'W Weather History for the Previous 24 Hours

Scroll right to see more
 ConditionsComfort  
Time TempWeatherWind HumidityBarometerVisibility
7:51 pm
Mon, Jun 17
99 °FPassing clouds.17 mph13%29.64 "Hg10 mi
6:51 pm101 °FScattered clouds.14 mph10%29.62 "Hg10 mi
5:51 pm101 °FScattered clouds.14 mph9%29.61 "Hg10 mi
4:51 pm102 °FScattered clouds.8 mph9%29.62 "Hg10 mi
3:51 pm102 °FScattered clouds.7 mph8%29.63 "Hg10 mi
2:51 pm103 °FPassing clouds.10 mph8%29.65 "Hg10 mi
1:51 pm102 °FPassing clouds.N/A7%29.67 "Hg10 mi
12:51 pm100 °FScattered clouds.12 mph9%29.70 "Hg10 mi
11:51 am100 °FScattered clouds.15 mph8%29.72 "Hg10 mi
10:51 am97 °FScattered clouds.13 mph10%29.73 "Hg10 mi
9:51 am94 °FScattered clouds.12 mph13%29.74 "Hg10 mi
8:51 am91 °FScattered clouds.9 mph16%29.74 "Hg10 mi
7:51 am87 °FPartly sunny.8 mph17%29.73 "Hg10 mi
6:51 am83 °FPartly sunny.8 mph19%29.72 "Hg10 mi
5:51 am83 °FPartly sunny.6 mph20%29.70 "Hg10 mi
4:51 am84 °FPassing clouds.10 mph18%29.68 "Hg10 mi
3:51 am84 °FPassing clouds.8 mph17%29.67 "Hg10 mi
2:51 am85 °FPassing clouds.8 mph19%29.68 "Hg10 mi
1:51 am88 °FPassing clouds.5 mph15%29.67 "Hg10 mi
12:51 am87 °FPassing clouds.6 mph16%29.67 "Hg10 mi
11:51 pm
Sun, Jun 16
92 °FPassing clouds.13 mph12%29.65 "Hg10 mi
10:51 pm93 °FPassing clouds.15 mph11%29.65 "Hg10 mi
9:51 pm94 °FPassing clouds.13 mph13%29.63 "Hg10 mi
Weather by CustomWeather, © 2019

See weather overview